Weather History for KBQP - April, 2014

Change the Weather History Date:

Saturday, April 5, 2014

  Actual Average (KMLU) Record (KMLU)
Temperature  
Mean Temperature 52 °F 63 °F  
Max Temperature 55 °F 75 °F 89 °F (1982)
Min Temperature 48 °F 51 °F 32 °F (1987)
Degree Days  
Heating Degree Days 14 4  
Month to date heating degree days 24  
Since 1 July heating degree days 2168  
Cooling Degree Days 0 2  
Month to date cooling degree days 10  
Year to date cooling degree days 53  
Growing Degree Days 2 (Base 50)    
Moisture  
Dew Point 39 °F    
Average Humidity 62    
Maximum Humidity 82    
Minimum Humidity 51    
Precipitation  
Precipitation 0.00 in 0.14 in 2.83 in (1956)
Month to date precipitation 0.71  
Year to date precipitation 15.07  
Snow  
Snow 0.00 in - - ()
Month to date snowfall  
Since 1 July snowfall  
Snow Depth -    
Sea Level Pressure  
Sea Level Pressure 30.11 in    
Wind  
Wind Speed 1 mph (NE)    
Max Wind Speed 9 mph    
Max Gust Speed 16 mph    
Visibility 10 miles    
Events      
T = Trace of Precipitation, MM = Missing Value Source: NWS Daily Summary

Daily Weather History Graph

Daily Weather History Graph

Search for Another Location

Airport or City:

Trip Planner

Search our weather history database for the weather conditions in past years. The results will help you decide how hot, cold, wet, or windy it might be!

Date:

Astronomy

Apr. 05, 2014 Rise Set
Actual Time 6:50 AM CDT 7:30 PM CDT
Civil Twilight 6:25 AM CDT 7:55 PM CDT
Nautical Twilight 5:56 AM CDT 8:24 PM CDT
Astronomical Twilight 5:26 AM CDT 8:54 PM CDT
Moon 11:09 AM CDT (4/5) 12:29 AM CDT (4/5)
Length of Visible Light 13h 30m
Length of Day
12h 40m
Waxing Crescent, 34% of the Moon is Illuminated
Apr 5
Waxing Crescent
Apr 7
First Quarter
Apr 15
Full
Apr 22
Last Quarter
Apr 29
New

Hourly Weather History & Observations

Time (CDT) Temp. Dew Point Humidity Pressure Visibility Wind Dir Wind Speed Gust Speed Precip Events Conditions
12:15 AM 52.0 °F 42.8 °F 71% 30.10 in 10.0 mi Calm Calm - N/A   Clear
12:35 AM 49.5 °F 44.1 °F 82% 30.10 in 10.0 mi Calm Calm - N/A   Clear
12:55 AM 48.6 °F 43.0 °F 81% 30.09 in 10.0 mi Calm Calm - N/A   Clear
1:15 AM 48.2 °F 42.3 °F 80% 30.09 in 10.0 mi Calm Calm - N/A   Clear
1:35 AM 48.7 °F 42.8 °F 80% 30.09 in 10.0 mi Calm Calm - N/A   Clear
1:55 AM 50.9 °F 41.5 °F 70% 30.10 in 10.0 mi Calm Calm - N/A   Clear
2:15 AM 51.4 °F 41.7 °F 69% 30.10 in 10.0 mi Calm Calm - N/A   Clear
2:35 AM 51.6 °F 41.5 °F 68% 30.11 in 10.0 mi Calm Calm - N/A   Clear
2:55 AM 50.9 °F 41.9 °F 71% 30.12 in 10.0 mi Calm Calm - N/A   Clear
3:15 AM 50.9 °F 41.2 °F 69% 30.12 in 10.0 mi Calm Calm - N/A   Clear
3:35 AM 50.5 °F 40.8 °F 69% 30.12 in 10.0 mi ENE 4.6 mph - N/A   Clear
3:55 AM 50.2 °F 40.1 °F 68% 30.12 in 10.0 mi NE 4.6 mph - N/A   Clear
4:15 AM 50.0 °F 39.6 °F 67% 30.12 in 10.0 mi Calm Calm - N/A   Clear
4:35 AM 49.6 °F 39.2 °F 67% 30.12 in 10.0 mi Calm Calm - N/A   Clear
4:55 AM 49.5 °F 38.5 °F 66% 30.11 in 10.0 mi Calm Calm - N/A   Clear
5:15 AM 49.1 °F 38.3 °F 66% 30.11 in 10.0 mi Calm Calm - N/A   Clear
5:35 AM 48.6 °F 38.3 °F 68% 30.12 in 10.0 mi Calm Calm - N/A   Clear
5:55 AM 48.6 °F 37.8 °F 66% 30.12 in 10.0 mi Calm Calm - N/A   Clear
6:15 AM 48.6 °F 37.8 °F 66% 30.13 in 10.0 mi Calm Calm - N/A   Clear
6:35 AM 48.4 °F 37.4 °F 66% 30.13 in 10.0 mi Calm Calm - N/A   Clear
6:55 AM 48.2 °F 38.3 °F 69% 30.14 in 10.0 mi Calm Calm - N/A   Clear
7:15 AM 48.2 °F 39.2 °F 71% 30.15 in 10.0 mi Calm Calm - N/A   Clear
7:35 AM 48.2 °F 38.5 °F 69% 30.15 in 10.0 mi Calm Calm - N/A   Clear
7:55 AM 48.6 °F 37.9 °F 67% 30.16 in 10.0 mi Calm Calm - N/A   Clear
8:15 AM 48.7 °F 37.6 °F 65% 30.15 in 10.0 mi NE 3.5 mph - N/A   Clear
8:35 AM 49.6 °F 37.4 °F 63% 30.16 in 10.0 mi Calm Calm - N/A   Clear
8:55 AM 50.5 °F 36.5 °F 59% 30.16 in 10.0 mi NE 4.6 mph - N/A   Clear
9:15 AM 51.8 °F 36.9 °F 57% 30.17 in 10.0 mi NE 9.2 mph - N/A   Clear
9:35 AM 52.5 °F 35.8 °F 53% 30.17 in 10.0 mi NE 6.9 mph 16.1 mph N/A   Clear
9:55 AM 53.1 °F 36.1 °F 53% 30.18 in 10.0 mi Calm Calm - N/A   Clear
10:15 AM 54.1 °F 36.7 °F 52% 30.19 in 10.0 mi NE 6.9 mph - N/A   Clear
10:35 AM 54.9 °F 37.2 °F 51% 30.18 in 10.0 mi NNE 6.9 mph - N/A   Clear
10:55 AM 54.0 °F 36.1 °F 51% 30.19 in 10.0 mi Calm Calm - N/A   Clear
11:15 AM 54.3 °F 37.6 °F 53% 30.19 in 10.0 mi NE 4.6 mph - N/A   Clear
11:35 AM 54.0 °F 36.3 °F 51% 30.19 in 10.0 mi NE 5.8 mph - N/A   Scattered Clouds
11:55 AM 54.3 °F 37.4 °F 53% 30.19 in 10.0 mi NE 6.9 mph - N/A   Clear
12:15 PM 55.0 °F 37.4 °F 51% 30.18 in 10.0 mi NE 4.6 mph - N/A   Clear
12:35 PM 55.6 °F 37.6 °F 51% 30.17 in 10.0 mi ENE 4.6 mph - N/A   Clear
12:55 PM 55.0 °F 37.4 °F 51% 30.16 in 10.0 mi North 5.8 mph - N/A   Clear
1:15 PM 55.0 °F 37.6 °F 52% 30.15 in 10.0 mi NE 3.5 mph - N/A   Clear
1:35 PM 54.5 °F 37.2 °F 52% 30.15 in 10.0 mi NE 5.8 mph - N/A   Clear
1:55 PM 54.5 °F 37.9 °F 54% 30.14 in 10.0 mi ENE 5.8 mph - N/A   Clear
2:15 PM 54.1 °F 37.6 °F 54% 30.14 in 10.0 mi NE 5.8 mph - N/A   Clear
2:35 PM 54.5 °F 37.6 °F 53% 30.13 in 10.0 mi Calm Calm - N/A   Clear
2:55 PM 54.5 °F 37.4 °F 52% 30.13 in 10.0 mi NE 4.6 mph - N/A   Clear
3:15 PM 54.3 °F 37.8 °F 54% 30.11 in 10.0 mi NNE 5.8 mph - N/A   Clear
3:35 PM 54.5 °F 37.4 °F 52% 30.09 in 10.0 mi NNE 5.8 mph - N/A   Clear
3:55 PM 54.7 °F 38.1 °F 54% 30.09 in 10.0 mi Calm Calm - N/A   Clear
4:15 PM 54.0 °F 37.6 °F 54% 30.09 in 10.0 mi NE 3.5 mph - N/A   Clear
4:35 PM 54.0 °F 38.5 °F 56% 30.08 in 10.0 mi NE 3.5 mph - N/A   Clear
4:55 PM 53.6 °F 38.8 °F 57% 30.07 in 10.0 mi Calm Calm - N/A   Clear
5:15 PM 53.6 °F 39.0 °F 58% 30.07 in 10.0 mi Calm Calm - N/A   Clear
5:35 PM 53.4 °F 39.4 °F 59% 30.06 in 10.0 mi Calm Calm - N/A   Clear
5:55 PM 53.2 °F 39.9 °F 61% 30.07 in 10.0 mi Calm Calm - N/A   Clear
6:15 PM 53.1 °F 39.4 °F 60% 30.06 in 10.0 mi Calm Calm - N/A   Clear
6:35 PM 52.9 °F 38.8 °F 59% 30.07 in 10.0 mi Calm Calm - N/A   Clear
6:55 PM 52.7 °F 38.8 °F 59% 30.07 in 10.0 mi Calm Calm - N/A   Clear
7:15 PM 52.0 °F 39.0 °F 61% 30.06 in 10.0 mi Calm Calm - N/A   Clear
7:35 PM 51.8 °F 39.4 °F 63% 30.06 in 10.0 mi Calm Calm - N/A   Clear
7:55 PM 51.4 °F 38.8 °F 62% 30.05 in 10.0 mi ENE 3.5 mph - N/A   Clear
8:15 PM 51.4 °F 39.2 °F 63% 30.08 in 10.0 mi Calm Calm - N/A   Clear
8:35 PM 51.1 °F 40.1 °F 66% 30.07 in 10.0 mi Calm Calm - N/A   Mostly Cloudy
8:55 PM 51.1 °F 40.1 °F 66% 30.07 in 10.0 mi Calm Calm - N/A   Overcast
9:15 PM 50.9 °F 40.3 °F 67% 30.05 in 10.0 mi Calm Calm - N/A   Overcast
9:35 PM 51.1 °F 40.8 °F 68% 30.05 in 10.0 mi Calm Calm - N/A   Overcast
9:55 PM 51.1 °F 41.0 °F 68% 30.04 in 10.0 mi Calm Calm - N/A   Mostly Cloudy
10:15 PM 51.4 °F 40.5 °F 66% 30.05 in 10.0 mi Calm Calm - N/A   Overcast
10:35 PM 51.8 °F 41.4 °F 68% 30.05 in 10.0 mi NE 3.5 mph - N/A   Overcast
10:55 PM 51.8 °F 41.2 °F 67% 30.04 in 10.0 mi Calm Calm - N/A   Overcast
11:15 PM 51.8 °F 41.0 °F 67% 30.03 in 10.0 mi Calm Calm - N/A   Overcast
11:35 PM 52.0 °F 40.6 °F 65% 30.01 in 10.0 mi Calm Calm - N/A   Overcast
11:55 PM 52.0 °F 40.5 °F 65% 30.02 in 10.0 mi NE 8.1 mph - N/A   Overcast